COSMOS 943

Satellite information

Favourite Embed

Satellite Type and Status

PAYLOADIN ORBIT

Key statistics

Satellite COSMOS 943 at a glance.

Uptime

17651

Days in orbit

Revolutions

≈ 12.5

Per day

Orbit

LEO

Low Earth Orbit

Inclination

74.0

Latest

Satellite identification and parameters

Extended collection of information and parameters for COSMOS 943.

Object identification

Identified? True

Debris? False

Object name: COSMOS 943

International designator: 1977-079E

Object number (NORAD): 10289

Object ID (CCSDS): 10289

Country: COMMONWEALTH OF INDEPENDENT STATES (CIS)

Current information (Y/N): Y

RCS size: MEDIUM

Orbital parameters

Period: 115.007 minutes

Inclination: 74.0244 deg

SMA: 7833.879 km

Apoapsis: 1461.13 km

Periapsis: 1450.359 km

RAAN: 110.2354 deg

Eccentricy: 0.0006875

Argument of periapsis: 119.6166 deg

Mean anomaly: 304.3842 deg

Mean motion: 12.52095444 rev/day

Mean motion (dot): -0.00000033 rev/day2

B* drag term: -0.00010733 1/REarth

Two-line elements (TLE)

Creation date: Dec. 19, 2025, 9:06 p.m.

Reference frame: TEME

Reference center: EARTH

Epoch: Dec. 19, 2025, 10:48 a.m. UTC

TLE line 0: 0 COSMOS 943

TLE line 1: 1 10289U 77079E 25353.45053122 -.00000033 00000-0 -10733-3 0 9995

TLE line 2: 2 10289 74.0244 110.2354 0006875 119.6166 304.3842 12.52095444183287

Live tracking on map

Real-time ground track for satellite COSMOS 943.

In-orbit conjunctions

A list of the most updated potential collisions computed for object COSMOS 943.

Target Orbit TCA Probability of collision Miss distance Type
ATLAS 5 CENTAUR R/B MEO 2024-06-09 12:07:41 0.0001960025 312.0 (m) ROCKET BODY

Associated space launch

High-resolution film-return Zenit reconnaissance satellite

COSMOS 943 was lifted into orbit during the mission ‘Soyuz U | Zenit-4MKM 4’, on board a Soyuz U space rocket.

The launch took place on Aug. 24, 1977, 2:29 p.m. from 43/4 (43R).

For more information about the launch, click the button.

Launch to space Soyuz U | Zenit-4MKM 4
Soyuz U | Zenit-4MKM 4

Agency: N/A

Status: Launch Successful

Launch date: Aug. 24, 1977, 2:29 p.m. UTC

Rocket: Soyuz U

Launch pad: 43/4 (43R)

Location: Plesetsk Cosmodrome, Russian Federation

...

Latest news about this satellite

There are no fresh news available about this satellite. Check back as we update our databases every day.


Newsletter sign-up

Weekly statistics, charts and insights to help you stay on top of the space industry.